Terug naar catalogus

PSLV DEB

ActiefSSO
NORAD 28853·DEBRIS·🇮🇳 India

Gelanceerd Oct 22, 2001 vanaf Satish Dhawan Space Centre

Loading…

Volgende Passages (komende 24 uur)

TLE

VersSource: Space-Track

Epoch: Sep 11, 2026, 10:46 UTC

1 28853U 01049PF  26254.44902228  .00003023  00000-0  21659-3 0  9994
2 28853  97.9906 323.7516 0024772 323.6718  36.2825 15.04973148718562

Volg PSLV DEB in realtime met AllMySat

Download on the App Store